This demonstration page uses our WeatherBlox Daily Observations layout. Learn more.

Left ArrowRight Arrow

Hourly Observations for February 28, 2020

Temp ( °F °C ) Dew Point ( °F °C ) Humidity (%) Winds ( mph kmh ) Pressure ( in mb ) Visibility ( mi km ) Precip ( " mm )
12:56 am 00:56 Mostly Cloudy 34 1.1 26 -3.3 73 73 WSW 12 19 30.19 1023 10 16 0.00 0.00
1:56 am 01:56 Clear 34 1.1 26 -3.3 73 73 W 13 20 30.19 1022 10 16 0.00 0.00
2:56 am 02:56 Clear 34 1.1 25 -3.9 70 70 W 16 26 30.17 1022 10 16 0.00 0.00
3:56 am 03:56 Clear 32 0 25 -3.9 75 75 WNW 12 19 30.17 1022 10 16 0.00 0.00
4:56 am 04:56 Clear 31 -0.6 24 -4.4 76 76 W 12 19 30.17 1022 10 16 0.00 0.00
5:56 am 05:56 Clear 29 -1.7 23 -5 78 78 W 10 17 30.19 1022 10 16 0.00 0.00
6:56 am 06:56 Clear 28 -2.2 23 -5 81 81 W 9 15 30.20 1023 10 16 0.00 0.00
7:56 am 07:56 Sunny 30 -1.1 23 -5 75 75 W 9 15 30.20 1023 10 16 0.00 0.00
8:56 am 08:56 Sunny 35 1.7 24 -4.4 64 64 W 13 20 30.20 1023 10 16 0.00 0.00
9:56 am 09:56 Sunny 40 4.4 26 -3.3 58 58 WNW 12 19 30.21 1023 10 16 0.00 0.00
10:56 am 10:56 Sunny 46 7.8 27 -2.8 47 47 NW 20 31 30.20 1023 10 16 0.00 0.00
11:56 am 11:56 Sunny 50 10 28 -2.2 43 43 WNW 17 28 30.20 1023 10 16 0.00 0.00
12:56 pm 12:56 Sunny 52 11.1 27 -2.8 38 38 NW 18 30 30.19 1022 10 16 0.00 0.00
1:56 pm 13:56 Sunny 53 11.7 24 -4.4 32 32 NNW 22 35 30.18 1022 10 16 0.00 0.00
2:56 pm 14:56 Sunny 53 11.7 23 -5 31 31 NW 20 31 30.18 1022 10 16 0.00 0.00
3:56 pm 15:56 Sunny 54 12.2 23 -5 30 30 NNW 12 19 30.19 1022 10 16 0.00 0.00
4:56 pm 16:56 Sunny 53 11.7 23 -5 31 31 NNW 16 26 30.20 1023 10 16 0.00 0.00
5:56 pm 17:56 Sunny 50 10 23 -5 35 35 NNW 8 13 30.22 1023 10 16 0.00 0.00
6:56 pm 18:56 Clear 44 6.7 23 -5 43 43 NNW 3 6 30.24 1024 10 16 0.00 0.00
7:56 pm 19:56 Clear 42 5.6 23 -5 47 47 W 6 9 30.24 1024 10 16 0.00 0.00
8:56 pm 20:56 Clear 41 5 23 -5 49 49 W 7 11 30.24 1024 10 16 0.00 0.00
9:56 pm 21:56 Clear 34 1.1 22 -5.6 61 61 Calm 30.24 1024 10 16 0.00 0.00
10:56 pm 22:56 Clear 31 -0.6 24 -4.4 76 76 SSW 3 6 30.22 1023 10 16 0.00 0.00
11:56 pm 23:56 Clear 33 0.6 24 -4.4 70 70 SW 7 11 30.19 1022 10 16 0.00 0.00

Powered by AerisWeather